Location: Jackson Park
(37.2862°N, 79.9123°W)
Time: 19:48:49
(UTC+00:00)

Vanguard 3 - Pass Details

Date: 14 May 2026
Orbit: 507 x 3205 km, 33.4° (Epoch: 31 May)

Event Time Altitude Azimuth Distance (km) Brightness Sun altitude
Rises 19:55:56 0° 250° (WSW) 6,789 12.5 50.6°
Reaches altitude 10° 20:00:12 10° 249° (WSW) 5,946 12.5 49.7°
Maximum altitude 20:19:45 74° 169° (S) 3,176 10.9 46.0°
Drops below altitude 10° 20:35:54 10° 88° (E) 5,047 10.8 42.8°
Sets 20:39:11 0° 87° (E) 5,765 11.0 42.2°
